| time (UTC) | temp F | wind direction | speed knots | gust knots | rain 1hr in | rain 24hr in | rain mn in | humidity % | barometer mb |
| 20260510164110 | 65 | 201 | 0.0 | 3.5 | 0.01 | 0.27 | 0.01 | 69 | 1014.5 |
| 20260510163539 | 65 | 172 | 0.0 | 3.5 | 0.01 | 0.27 | 0.01 | 66 | 1014.6 |
| 20260510163006 | 66 | 177 | 0.9 | 2.6 | 0.01 | 0.27 | 0.01 | 65 | 1014.8 |
| 20260510162434 | 66 | 261 | 0.9 | 3.5 | 0.01 | 0.27 | 0.01 | 69 | 1014.8 |
| 20260510161903 | 65 | 252 | 0.0 | 3.5 | 0.00 | 0.26 | 0.01 | 71 | 1014.7 |
| 20260510161333 | 65 | 239 | 0.0 | 0.9 | 0.00 | 0.27 | 0.00 | 68 | 1014.8 |
| 20260510160802 | 66 | 252 | 0.0 | 0.9 | 0.00 | 0.27 | 0.00 | 67 | 1014.8 |
| 20260510160232 | 66 | 237 | 0.0 | 0.9 | 0.00 | 0.27 | 0.00 | 66 | 1014.7 |
| 20260510155702 | 67 | 353 | 0.0 | 1.7 | 0.00 | 0.27 | 0.00 | 65 | 1014.8 |
| 20260510155132 | 67 | 252 | 0.9 | 3.5 | 0.00 | 0.28 | 0.00 | 65 | 1014.9 |
| 20260510154601 | 68 | 246 | 0.9 | 4.3 | 0.00 | 0.28 | 0.00 | 65 | 1014.9 |
| 20260510154032 | 67 | 269 | 0.9 | 4.3 | 0.00 | 0.29 | 0.00 | 67 | 1014.8 |
| 20260510153502 | 66 | 273 | 0.9 | 3.5 | 0.00 | 0.29 | 0.00 | 70 | 1014.7 |
| 20260510152930 | 65 | 242 | 1.7 | 7.0 | 0.00 | 0.30 | 0.00 | 71 | 1014.5 |
| 20260510152400 | 63 | 263 | 0.9 | 7.0 | 0.00 | 0.31 | 0.00 | 73 | 1014.4 |
| 20260510152101 | 62 | 240 | 0.9 | 4.3 | 0.00 | 0.32 | 0.00 | 75 | 1014.4 |
| 20260510151531 | 62 | 280 | 0.0 | 4.3 | 0.00 | 0.33 | 0.00 | 75 | 1014.4 |
| 20260510150729 | 62 | 267 | 0.0 | 2.6 | 0.00 | 0.33 | 0.00 | 76 | 1014.4 |
| 20260510150158 | 62 | 313 | 0.0 | 2.6 | 0.00 | 0.33 | 0.00 | 76 | 1014.4 |
| 20260510145859 | 62 | 272 | 0.0 | 0.0 | 0.00 | 0.34 | 0.00 | 77 | 1014.4 |
| 20260510145058 | 61 | 251 | 0.0 | 0.0 | 0.00 | 0.34 | 0.00 | 77 | 1014.5 |
| 20260510144528 | 61 | 247 | 0.0 | 0.0 | 0.00 | 0.35 | 0.00 | 75 | 1014.3 |
| 20260510143958 | 61 | 214 | 0.0 | 3.5 | 0.00 | 0.36 | 0.00 | 75 | 1014.3 |
| 20260510143428 | 62 | 328 | 0.9 | 7.8 | 0.00 | 0.36 | 0.00 | 73 | 1014.4 |
| 20260510142900 | 63 | 282 | 0.9 | 7.8 | 0.00 | 0.37 | 0.00 | 71 | 1014.5 |
| 20260510142327 | 64 | 263 | 0.9 | 4.3 | 0.00 | 0.38 | 0.00 | 72 | 1014.4 |
| 20260510141757 | 65 | 247 | 0.9 | 2.6 | 0.00 | 0.38 | 0.00 | 70 | 1014.3 |
| 20260510141226 | 65 | 236 | 0.9 | 2.6 | 0.00 | 0.38 | 0.00 | 71 | 1014.2 |
| 20260510140656 | 65 | 240 | 0.9 | 3.5 | 0.00 | 0.39 | 0.00 | 74 | 1014.2 |
| 20260510140125 | 64 | 246 | 0.9 | 2.6 | 0.00 | 0.39 | 0.00 | 75 | 1014.3 |
| 20260510135555 | 63 | 251 | 0.0 | 1.7 | 0.00 | 0.39 | 0.00 | 76 | 1014.0 |
| 20260510135024 | 62 | 258 | 0.0 | 0.0 | 0.00 | 0.40 | 0.00 | 80 | 1013.9 |
| 20260510134453 | 61 | 246 | 0.0 | 0.0 | 0.00 | 0.40 | 0.00 | 81 | 1013.8 |
| 20260510133922 | 61 | 245 | 0.0 | 0.0 | 0.00 | 0.41 | 0.00 | 79 | 1013.9 |
| 20260510133353 | 61 | 245 | 0.0 | 0.0 | 0.00 | 0.41 | 0.00 | 84 | 1013.8 |
| 20260510133053 | 60 | 245 | 0.0 | 0.0 | 0.00 | 0.42 | 0.00 | 81 | 1014.1 |
| 20260510132250 | 60 | 209 | 0.0 | 0.0 | 0.00 | 0.42 | 0.00 | 85 | 1014.2 |
| 20260510131720 | 59 | 209 | 0.0 | 0.0 | 0.00 | 0.42 | 0.00 | 85 | 1014.1 |
| 20260510131148 | 59 | 245 | 0.0 | 0.0 | 0.00 | 0.43 | 0.00 | 85 | 1014.0 |
| 20260510130618 | 58 | 247 | 0.0 | 0.0 | 0.00 | 0.43 | 0.00 | 89 | 1014.0 |
| 20260510130047 | 56 | 163 | 0.0 | 0.0 | 0.00 | 0.43 | 0.00 | 90 | 1013.7 |
| 20260510125517 | 56 | 254 | 0.0 | 0.0 | 0.00 | 0.44 | 0.00 | 88 | 1013.8 |
| 20260510124947 | 56 | 255 | 0.0 | 0.0 | 0.00 | 0.44 | 0.00 | 90 | 1013.8 |
| 20260510124418 | 56 | 255 | 0.0 | 0.0 | 0.00 | 0.44 | 0.00 | 90 | 1013.7 |
| 20260510124117 | 56 | 255 | 0.0 | 0.0 | 0.00 | 0.44 | 0.00 | 90 | 1013.7 |
| 20260510123316 | 56 | 255 | 0.0 | 0.0 | 0.00 | 0.44 | 0.00 | 90 | 1013.7 |
| 20260510123017 | 55 | 254 | 0.0 | 0.0 | 0.00 | 0.44 | 0.00 | 91 | 1013.6 |
| 20260510122214 | 55 | 255 | 0.0 | 0.0 | 0.00 | 0.44 | 0.00 | 92 | 1013.5 |
| 20260510121644 | 55 | 255 | 0.0 | 0.0 | 0.00 | 0.44 | 0.00 | 92 | 1013.5 |
| 20260510121112 | 54 | 254 | 0.0 | 0.0 | 0.00 | 0.44 | 0.00 | 92 | 1013.3 |
| 20260510120541 | 53 | 254 | 0.0 | 0.0 | 0.00 | 0.44 | 0.00 | 92 | 1013.1 |
| 20260510120011 | 52 | 254 | 0.0 | 0.0 | 0.00 | 0.45 | 0.00 | 92 | 1013.0 |
| 20260510115441 | 52 | 253 | 0.0 | 0.0 | 0.00 | 0.45 | 0.00 | 92 | 1012.8 |
| 20260510114910 | 51 | 178 | 0.0 | 0.0 | 0.00 | 0.45 | 0.00 | 92 | 1012.6 |
| 20260510114341 | 51 | 177 | 0.0 | 0.0 | 0.00 | 0.45 | 0.00 | 92 | 1012.6 |
| 20260510114042 | 50 | 177 | 0.0 | 0.0 | 0.00 | 0.45 | 0.00 | 92 | 1012.5 |
| 20260510113240 | 49 | 178 | 0.0 | 0.0 | 0.00 | 0.45 | 0.00 | 92 | 1012.4 |
| 20260510112710 | 49 | 177 | 0.0 | 0.0 | 0.00 | 0.45 | 0.00 | 92 | 1012.4 |
| 20260510112412 | 49 | 177 | 0.0 | 0.0 | 0.00 | 0.45 | 0.00 | 92 | 1012.3 |
| 20260510111610 | 49 | 177 | 0.0 | 0.0 | 0.00 | 0.45 | 0.00 | 92 | 1012.2 |
| 20260510111039 | 48 | 177 | 0.0 | 0.0 | 0.00 | 0.45 | 0.00 | 92 | 1012.1 |
| 20260510110509 | 48 | 178 | 0.0 | 0.0 | 0.00 | 0.45 | 0.00 | 92 | 1011.9 |
| 20260510105939 | 48 | 177 | 0.0 | 0.0 | 0.00 | 0.45 | 0.00 | 92 | 1011.9 |
| 20260510105407 | 48 | 177 | 0.0 | 0.0 | 0.00 | 0.45 | 0.00 | 92 | 1011.8 |
| 20260510104837 | 48 | 178 | 0.0 | 0.0 | 0.00 | 0.46 | 0.00 | 92 | 1011.8 |
| 20260510104308 | 48 | 178 | 0.0 | 0.0 | 0.00 | 0.46 | 0.00 | 92 | 1011.9 |
| 20260510103736 | 48 | 177 | 0.0 | 0.0 | 0.00 | 0.46 | 0.00 | 92 | 1011.8 |
| 20260510103437 | 48 | 177 | 0.0 | 0.0 | 0.00 | 0.46 | 0.00 | 92 | 1011.9 |
| 20260510102635 | 48 | 177 | 0.0 | 0.0 | 0.00 | 0.46 | 0.00 | 92 | 1011.9 |
| 20260510102334 | 48 | 178 | 0.0 | 0.0 | 0.00 | 0.46 | 0.00 | 92 | 1011.8 |
| 20260510101533 | 48 | 177 | 0.0 | 0.0 | 0.00 | 0.46 | 0.00 | 92 | 1011.8 |
| 20260510101232 | 48 | 178 | 0.0 | 0.0 | 0.00 | 0.46 | 0.00 | 92 | 1011.7 |
| 20260510100432 | 48 | 178 | 0.0 | 0.0 | 0.00 | 0.46 | 0.00 | 92 | 1011.5 |
| 20260510100131 | 48 | 178 | 0.0 | 0.0 | 0.00 | 0.46 | 0.00 | 92 | 1011.5 |
| 20260510095329 | 48 | 177 | 0.0 | 0.0 | 0.00 | 0.46 | 0.00 | 91 | 1011.5 |
| 20260510094759 | 48 | 178 | 0.0 | 0.0 | 0.00 | 0.46 | 0.00 | 91 | 1011.5 |
| 20260510094229 | 48 | 178 | 0.0 | 0.0 | 0.00 | 0.46 | 0.00 | 91 | 1011.4 |
| 20260510093929 | 48 | 178 | 0.0 | 0.0 | 0.00 | 0.46 | 0.00 | 92 | 1011.6 |
| 20260510093125 | 48 | 178 | 0.0 | 0.0 | 0.00 | 0.46 | 0.00 | 92 | 1011.4 |
| 20260510092555 | 48 | 178 | 0.0 | 0.0 | 0.00 | 0.46 | 0.00 | 92 | 1011.1 |
| 20260510092024 | 49 | 178 | 0.0 | 0.0 | 0.00 | 0.46 | 0.00 | 92 | 1011.1 |
| 20260510091455 | 49 | 177 | 0.0 | 0.0 | 0.00 | 0.46 | 0.00 | 92 | 1010.9 |
| 20260510091156 | 49 | 178 | 0.0 | 0.0 | 0.00 | 0.46 | 0.00 | 92 | 1011.0 |
| 20260510090626 | 49 | 177 | 0.0 | 0.0 | 0.00 | 0.46 | 0.00 | 92 | 1011.1 |
| 20260510085825 | 49 | 178 | 0.0 | 0.0 | 0.00 | 0.46 | 0.00 | 92 | 1011.0 |
| 20260510085254 | 49 | 178 | 0.0 | 0.0 | 0.00 | 0.47 | 0.00 | 92 | 1010.7 |
| 20260510084724 | 49 | 177 | 0.0 | 0.0 | 0.00 | 0.47 | 0.00 | 92 | 1010.8 |
| 20260510084154 | 49 | 177 | 0.0 | 0.0 | 0.00 | 0.48 | 0.00 | 92 | 1010.8 |
| 20260510083623 | 49 | 178 | 0.0 | 0.0 | 0.00 | 0.48 | 0.00 | 92 | 1010.7 |
| 20260510083052 | 49 | 191 | 0.0 | 0.0 | 0.00 | 0.48 | 0.00 | 92 | 1010.8 |
| 20260510082522 | 49 | 190 | 0.0 | 0.0 | 0.00 | 0.48 | 0.00 | 91 | 1011.0 |
| 20260510081952 | 49 | 191 | 0.0 | 0.0 | 0.00 | 0.48 | 0.00 | 92 | 1011.0 |
| 20260510081422 | 49 | 190 | 0.0 | 0.0 | 0.00 | 0.49 | 0.00 | 91 | 1010.9 |
| 20260510080852 | 49 | 191 | 0.0 | 0.0 | 0.00 | 0.49 | 0.00 | 91 | 1010.9 |
| 20260510080552 | 49 | 191 | 0.0 | 0.0 | 0.00 | 0.49 | 0.00 | 91 | 1011.0 |
| 20260510080021 | 49 | 190 | 0.0 | 0.0 | 0.00 | 0.49 | 0.00 | 91 | 1010.9 |
| 20260510075219 | 49 | 190 | 0.0 | 0.0 | 0.00 | 0.49 | 0.00 | 91 | 1011.0 |
| 20260510074650 | 49 | 191 | 0.0 | 0.0 | 0.00 | 0.50 | 0.00 | 91 | 1011.1 |
| 20260510074117 | 49 | 190 | 0.0 | 0.0 | 0.00 | 0.50 | 0.00 | 91 | 1011.4 |
| 20260510073817 | 49 | 269 | 0.0 | 0.0 | 0.00 | 0.50 | 0.00 | 91 | 1011.4 |
| 20260510073016 | 49 | 269 | 0.0 | 0.0 | 0.00 | 0.50 | 0.00 | 91 | 1011.5 |
| 20260510072446 | 49 | 269 | 0.0 | 0.0 | 0.00 | 0.50 | 0.00 | 91 | 1011.4 |
| 20260510071915 | 49 | 269 | 0.0 | 0.0 | 0.00 | 0.51 | 0.00 | 91 | 1011.5 |
| 20260510071345 | 49 | 269 | 0.0 | 0.0 | 0.00 | 0.51 | 0.00 | 92 | 1011.6 |
| 20260510070815 | 49 | 269 | 0.0 | 0.0 | 0.00 | 0.52 | 0.00 | 92 | 1011.7 |
| 20260510070245 | 49 | 269 | 0.0 | 0.0 | 0.00 | 0.52 | 0.00 | 92 | 1011.7 |
| 20260510065714 | 49 | 269 | 0.0 | 0.0 | 0.00 | 0.53 | 0.00 | 92 | 1011.6 |
| 20260510065145 | 49 | 269 | 0.0 | 0.0 | 0.00 | 0.54 | 0.00 | 92 | 1011.8 |
| 20260510064613 | 49 | 269 | 0.0 | 0.0 | 0.00 | 0.54 | 0.00 | 92 | 1011.9 |
| 20260510064042 | 49 | 269 | 0.0 | 0.0 | 0.00 | 0.55 | 0.00 | 91 | 1011.8 |
| 20260510063509 | 49 | 269 | 0.0 | 0.0 | 0.00 | 0.56 | 0.00 | 92 | 1011.9 |
| 20260510063212 | 49 | 269 | 0.0 | 0.0 | 0.00 | 0.57 | 0.00 | 92 | 1012.1 |
| 20260510062410 | 49 | 269 | 0.0 | 0.0 | 0.00 | 0.59 | 0.00 | 92 | 1012.2 |
| 20260510061840 | 49 | 269 | 0.0 | 0.0 | 0.00 | 0.60 | 0.00 | 92 | 1012.2 |
| 20260510061310 | 49 | 269 | 0.0 | 0.0 | 0.00 | 0.60 | 0.00 | 92 | 1011.8 |
| 20260510061009 | 49 | 269 | 0.0 | 0.0 | 0.00 | 0.60 | 0.00 | 92 | 1011.9 |
| 20260510060209 | 49 | 270 | 0.0 | 0.0 | 0.00 | 0.60 | 0.00 | 92 | 1011.9 |
| 20260510055639 | 49 | 158 | 0.0 | 0.0 | 0.00 | 0.60 | 0.00 | 92 | 1011.8 |
| 20260510055108 | 49 | 157 | 0.0 | 0.0 | 0.00 | 0.60 | 0.00 | 92 | 1011.4 |
| 20260510054539 | 49 | 190 | 0.0 | 0.0 | 0.00 | 0.60 | 0.00 | 92 | 1011.4 |
| 20260510054008 | 49 | 190 | 0.0 | 0.0 | 0.00 | 0.60 | 0.00 | 92 | 1011.5 |
| 20260510053437 | 49 | 173 | 0.0 | 0.0 | 0.00 | 0.60 | 0.00 | 92 | 1011.4 |
| 20260510052907 | 49 | 171 | 0.0 | 0.0 | 0.00 | 0.60 | 0.00 | 92 | 1011.6 |
| 20260510052607 | 49 | 170 | 0.0 | 0.0 | 0.00 | 0.60 | 0.00 | 92 | 1011.5 |
| 20260510051806 | 49 | 169 | 0.0 | 0.0 | 0.00 | 0.60 | 0.00 | 92 | 1011.4 |
| 20260510051236 | 49 | 169 | 0.0 | 0.0 | 0.00 | 0.60 | 0.00 | 91 | 1011.5 |
| 20260510050706 | 49 | 169 | 0.0 | 0.0 | 0.00 | 0.60 | 0.00 | 91 | 1011.6 |
| 20260510050136 | 49 | 180 | 0.0 | 0.0 | 0.00 | 0.60 | 0.00 | 91 | 1011.7 |
| 20260510045606 | 49 | 180 | 0.0 | 0.0 | 0.00 | 0.60 | 0.00 | 91 | 1011.6 |
| 20260510045306 | 49 | 180 | 0.0 | 0.0 | 0.00 | 0.60 | 0.00 | 91 | 1011.6 |
| 20260510044505 | 49 | 180 | 0.0 | 0.0 | 0.00 | 0.60 | 0.00 | 91 | 1011.5 |
| 20260510043934 | 49 | 180 | 0.0 | 0.0 | 0.00 | 0.60 | 0.00 | 91 | 1011.4 |
| 20260510043404 | 49 | 180 | 0.0 | 0.0 | 0.00 | 0.60 | 0.00 | 91 | 1011.2 |
| 20260510042833 | 49 | 180 | 0.0 | 0.0 | 0.00 | 0.60 | 0.00 | 91 | 1011.2 |
| 20260510042306 | 49 | 180 | 0.0 | 0.0 | 0.00 | 0.60 | 0.00 | 91 | 1011.1 |
| 20260510041733 | 49 | 180 | 0.0 | 0.0 | 0.00 | 0.60 | 0.00 | 91 | 1011.0 |
| 20260510041436 | 49 | 180 | 0.0 | 0.0 | 0.00 | 0.60 | 0.00 | 91 | 1011.0 |
| 20260510040633 | 49 | 180 | 0.0 | 0.0 | 0.00 | 0.60 | 0.00 | 91 | 1011.0 |
| 20260510040332 | 49 | 180 | 0.0 | 0.0 | 0.00 | 0.60 | 0.00 | 91 | 1011.1 |
| 20260510035530 | 49 | 180 | 0.0 | 0.0 | 0.00 | 0.60 | 0.60 | 91 | 1011.1 |
| 20260510035001 | 49 | 184 | 0.0 | 0.0 | 0.00 | 0.60 | 0.60 | 91 | 1011.1 |
| 20260510034430 | 49 | 193 | 0.0 | 0.0 | 0.00 | 0.60 | 0.60 | 91 | 1011.1 |
| 20260510033900 | 49 | 193 | 0.0 | 0.0 | 0.00 | 0.60 | 0.60 | 91 | 1011.0 |
| 20260510033329 | 49 | 142 | 0.0 | 0.0 | 0.00 | 0.60 | 0.60 | 91 | 1011.0 |
| 20260510033029 | 49 | 142 | 0.0 | 0.0 | 0.00 | 0.60 | 0.60 | 91 | 1010.9 |
| 20260510032229 | 49 | 135 | 0.0 | 0.0 | 0.00 | 0.60 | 0.60 | 91 | 1011.1 |
| 20260510031659 | 49 | 128 | 0.0 | 0.0 | 0.00 | 0.60 | 0.60 | 91 | 1011.1 |
| 20260510031631 | 50 | 129 | 0.0 | 0.0 | 0.00 | 0.60 | 0.60 | 91 | 1011.2 |
| 20260510030556 | 50 | 129 | 0.0 | 0.0 | 0.00 | 0.60 | 0.60 | 91 | 1011.1 |
| 20260510030028 | 49 | 188 | 0.0 | 0.0 | 0.00 | 0.60 | 0.60 | 91 | 1011.0 |
| 20260510025457 | 49 | 161 | 0.0 | 0.0 | 0.00 | 0.60 | 0.60 | 91 | 1011.0 |
| 20260510024927 | 50 | 161 | 0.0 | 0.0 | 0.00 | 0.60 | 0.60 | 91 | 1011.2 |
| 20260510024356 | 50 | 161 | 0.0 | 0.0 | 0.00 | 0.60 | 0.60 | 91 | 1011.1 |
| 20260510023826 | 50 | 172 | 0.0 | 0.0 | 0.00 | 0.60 | 0.60 | 91 | 1011.0 |
| 20260510023255 | 50 | 159 | 0.0 | 0.0 | 0.00 | 0.60 | 0.60 | 91 | 1011.0 |
| 20260510022724 | 50 | 182 | 0.0 | 0.0 | 0.00 | 0.60 | 0.60 | 91 | 1011.1 |
| 20260510022154 | 50 | 166 | 0.0 | 0.0 | 0.00 | 0.60 | 0.60 | 91 | 1011.1 |
| 20260510021624 | 50 | 191 | 0.0 | 0.0 | 0.00 | 0.60 | 0.60 | 91 | 1011.0 |
| 20260510021053 | 50 | 178 | 0.0 | 0.0 | 0.00 | 0.60 | 0.60 | 91 | 1010.9 |
| 20260510020523 | 50 | 178 | 0.0 | 0.0 | 0.00 | 0.60 | 0.60 | 91 | 1011.0 |
| 20260510015951 | 50 | 180 | 0.0 | 0.0 | 0.00 | 0.60 | 0.60 | 91 | 1011.1 |
| 20260510015422 | 50 | 180 | 0.0 | 0.0 | 0.00 | 0.60 | 0.60 | 91 | 1010.9 |
| 20260510014853 | 50 | 178 | 0.0 | 0.0 | 0.00 | 0.60 | 0.60 | 91 | 1010.9 |
| 20260510014321 | 50 | 179 | 0.0 | 0.0 | 0.00 | 0.60 | 0.60 | 91 | 1010.7 |
| 20260510013749 | 50 | 179 | 0.0 | 0.0 | 0.00 | 0.60 | 0.60 | 91 | 1010.8 |
| 20260510013219 | 50 | 179 | 0.0 | 0.0 | 0.00 | 0.60 | 0.60 | 91 | 1010.7 |
| 20260510012649 | 50 | 178 | 0.0 | 0.0 | 0.00 | 0.60 | 0.60 | 91 | 1010.9 |
| 20260510012118 | 50 | 179 | 0.0 | 0.0 | 0.00 | 0.60 | 0.60 | 91 | 1010.8 |
| 20260510011548 | 50 | 179 | 0.0 | 0.0 | 0.00 | 0.60 | 0.60 | 91 | 1010.9 |
| 20260510011017 | 50 | 179 | 0.0 | 0.0 | 0.00 | 0.60 | 0.60 | 91 | 1010.9 |
| 20260510010447 | 50 | 169 | 0.0 | 0.0 | 0.00 | 0.60 | 0.60 | 91 | 1011.0 |
| 20260510005916 | 50 | 169 | 0.0 | 0.0 | 0.00 | 0.60 | 0.60 | 91 | 1010.8 |
| 20260510005346 | 50 | 169 | 0.0 | 0.0 | 0.00 | 0.60 | 0.60 | 91 | 1010.8 |
| 20260510004815 | 50 | 170 | 0.0 | 0.0 | 0.00 | 0.60 | 0.60 | 91 | 1010.8 |
| 20260510004246 | 50 | 169 | 0.0 | 0.0 | 0.00 | 0.60 | 0.60 | 91 | 1010.7 |
| 20260510003716 | 50 | 169 | 0.0 | 0.0 | 0.00 | 0.60 | 0.60 | 91 | 1010.5 |
| 20260510003146 | 50 | 170 | 0.0 | 0.0 | 0.00 | 0.60 | 0.60 | 91 | 1010.5 |
| 20260510002845 | 49 | 170 | 0.0 | 0.0 | 0.00 | 0.60 | 0.60 | 91 | 1010.3 |
| 20260510002045 | 50 | 170 | 0.0 | 0.0 | 0.00 | 0.60 | 0.60 | 91 | 1010.4 |
| 20260510001514 | 50 | 170 | 0.0 | 0.0 | 0.00 | 0.60 | 0.60 | 91 | 1010.2 |
| 20260510001215 | 50 | 170 | 0.0 | 0.0 | 0.00 | 0.60 | 0.60 | 91 | 1010.3 |
| 20260510000644 | 50 | 170 | 0.0 | 0.0 | 0.00 | 0.60 | 0.60 | 91 | 1010.4 |
| 20260509235842 | 51 | 170 | 0.0 | 0.0 | 0.00 | 0.60 | 0.60 | 91 | 1010.4 |
| 20260509235544 | 51 | 169 | 0.0 | 0.0 | 0.00 | 0.60 | 0.60 | 91 | 1010.4 |
| 20260509234740 | 51 | 169 | 0.0 | 0.0 | 0.00 | 0.60 | 0.60 | 91 | 1010.2 |
| 20260509234210 | 51 | 170 | 0.0 | 0.0 | 0.00 | 0.60 | 0.60 | 91 | 1010.0 |
| 20260509233640 | 51 | 170 | 0.0 | 0.0 | 0.00 | 0.60 | 0.60 | 91 | 1009.9 |
| 20260509233109 | 51 | 169 | 0.0 | 0.0 | 0.00 | 0.60 | 0.60 | 91 | 1009.7 |
| 20260509232537 | 51 | 170 | 0.0 | 0.0 | 0.00 | 0.60 | 0.60 | 91 | 1009.8 |
| 20260509232006 | 51 | 170 | 0.0 | 0.0 | 0.00 | 0.60 | 0.60 | 91 | 1009.8 |
| 20260509231436 | 51 | 169 | 0.0 | 0.0 | 0.00 | 0.60 | 0.60 | 91 | 1009.8 |
| 20260509230905 | 51 | 170 | 0.0 | 0.0 | 0.00 | 0.60 | 0.60 | 91 | 1009.7 |
| 20260509230333 | 52 | 149 | 0.0 | 0.0 | 0.00 | 0.60 | 0.60 | 91 | 1009.8 |
| 20260509225804 | 52 | 150 | 0.0 | 0.0 | 0.00 | 0.60 | 0.60 | 91 | 1009.9 |
| 20260509225232 | 52 | 188 | 0.0 | 0.0 | 0.00 | 0.60 | 0.60 | 91 | 1009.8 |
| 20260509224703 | 52 | 189 | 0.0 | 0.0 | 0.00 | 0.60 | 0.60 | 91 | 1009.9 |
| 20260509224132 | 52 | 190 | 0.0 | 0.0 | 0.00 | 0.60 | 0.60 | 91 | 1009.7 |
| 20260509223602 | 52 | 227 | 0.0 | 0.0 | 0.00 | 0.60 | 0.60 | 91 | 1010.0 |
| 20260509223534 | 52 | 226 | 0.0 | 0.0 | 0.00 | 0.60 | 0.60 | 91 | 1010.0 |
| 20260509222501 | 52 | 227 | 0.0 | 0.0 | 0.00 | 0.60 | 0.60 | 91 | 1010.1 |
| 20260509222202 | 53 | 227 | 0.0 | 0.0 | 0.00 | 0.60 | 0.60 | 91 | 1010.2 |
| 20260509221400 | 53 | 227 | 0.0 | 0.0 | 0.00 | 0.60 | 0.60 | 91 | 1010.2 |
| 20260509220830 | 53 | 199 | 0.0 | 0.0 | 0.00 | 0.60 | 0.60 | 91 | 1010.1 |
| 20260509220530 | 52 | 199 | 0.0 | 0.0 | 0.00 | 0.60 | 0.60 | 91 | 1010.1 |
| 20260509215729 | 53 | 199 | 0.0 | 0.0 | 0.00 | 0.60 | 0.60 | 91 | 1010.2 |
| 20260509215429 | 53 | 199 | 0.0 | 0.0 | 0.00 | 0.60 | 0.60 | 91 | 1010.2 |
| 20260509214628 | 53 | 177 | 0.0 | 0.0 | 0.00 | 0.60 | 0.60 | 91 | 1010.3 |
| 20260509214058 | 53 | 234 | 0.0 | 0.0 | 0.00 | 0.60 | 0.60 | 91 | 1010.2 |
| 20260509213528 | 52 | 170 | 0.0 | 0.0 | 0.00 | 0.60 | 0.60 | 91 | 1010.1 |
| 20260509212957 | 51 | 171 | 0.0 | 0.0 | 0.00 | 0.60 | 0.60 | 91 | 1010.1 |
| 20260509212427 | 51 | 171 | 0.0 | 0.0 | 0.00 | 0.60 | 0.60 | 91 | 1010.1 |
| 20260509211857 | 51 | 171 | 0.0 | 0.0 | 0.01 | 0.60 | 0.60 | 91 | 1010.1 |
| 20260509211326 | 51 | 171 | 0.0 | 0.0 | 0.01 | 0.60 | 0.60 | 91 | 1010.2 |
| 20260509210756 | 51 | 195 | 0.0 | 0.0 | 0.02 | 0.60 | 0.60 | 91 | 1010.3 |
| 20260509210226 | 51 | 193 | 0.0 | 0.0 | 0.02 | 0.60 | 0.60 | 91 | 1010.3 |
| 20260509205927 | 51 | 188 | 0.0 | 0.0 | 0.02 | 0.60 | 0.60 | 91 | 1010.3 |
| 20260509205053 | 51 | 185 | 0.0 | 0.0 | 0.04 | 0.60 | 0.60 | 91 | 1010.3 |
| 20260509204522 | 51 | 186 | 0.0 | 0.0 | 0.04 | 0.60 | 0.60 | 91 | 1010.4 |
| 20260509203950 | 51 | 186 | 0.0 | 0.0 | 0.05 | 0.60 | 0.60 | 91 | 1010.4 |
| 20260509203420 | 50 | 185 | 0.0 | 0.0 | 0.06 | 0.60 | 0.60 | 91 | 1010.5 |
| 20260509202850 | 50 | 185 | 0.0 | 0.0 | 0.07 | 0.60 | 0.60 | 91 | 1010.6 |
| 20260509202320 | 51 | 176 | 0.0 | 0.0 | 0.07 | 0.59 | 0.60 | 91 | 1010.7 |
| 20260509202252 | 51 | 174 | 0.0 | 0.0 | 0.07 | 0.59 | 0.59 | 91 | 1010.7 |
| 20260509201220 | 50 | 174 | 0.0 | 0.0 | 0.07 | 0.59 | 0.59 | 91 | 1010.6 |
| 20260509200649 | 50 | 174 | 0.0 | 0.0 | 0.07 | 0.58 | 0.58 | 91 | 1010.6 |
| 20260509200120 | 50 | 174 | 0.0 | 0.0 | 0.09 | 0.58 | 0.58 | 91 | 1010.7 |
| 20260509195549 | 50 | 174 | 0.0 | 0.0 | 0.10 | 0.57 | 0.57 | 91 | 1010.7 |
| 20260509195019 | 50 | 182 | 0.0 | 0.0 | 0.10 | 0.56 | 0.56 | 91 | 1010.7 |
| 20260509194448 | 50 | 177 | 0.0 | 0.9 | 0.11 | 0.56 | 0.56 | 91 | 1010.9 |
| 20260509193918 | 50 | 168 | 0.0 | 0.0 | 0.10 | 0.55 | 0.55 | 91 | 1011.1 |
| 20260509193347 | 50 | 168 | 0.0 | 0.0 | 0.10 | 0.54 | 0.54 | 91 | 1011.2 |
| 20260509192743 | 50 | 168 | 0.0 | 0.0 | 0.10 | 0.53 | 0.53 | 91 | 1011.3 |
| 20260509192214 | 50 | 195 | 0.0 | 0.0 | 0.09 | 0.52 | 0.52 | 91 | 1011.3 |
| 20260509191915 | 50 | 195 | 0.0 | 0.0 | 0.09 | 0.52 | 0.52 | 91 | 1011.3 |
| 20260509191114 | 50 | 233 | 0.0 | 0.0 | 0.09 | 0.51 | 0.52 | 91 | 1011.4 |
| 20260509190543 | 50 | 194 | 0.0 | 4.3 | 0.09 | 0.51 | 0.51 | 91 | 1011.4 |
| 20260509190013 | 50 | 209 | 0.0 | 0.0 | 0.06 | 0.48 | 0.48 | 91 | 1011.3 |
| 20260509185443 | 50 | 170 | 0.0 | 0.0 | 0.05 | 0.46 | 0.47 | 91 | 1011.4 |
| 20260509184912 | 50 | 183 | 0.0 | 0.0 | 0.05 | 0.46 | 0.46 | 91 | 1011.4 |
| 20260509184614 | 50 | 182 | 0.0 | 0.0 | 0.05 | 0.45 | 0.45 | 91 | 1011.5 |
| 20260509184043 | 50 | 195 | 0.0 | 0.0 | 0.06 | 0.45 | 0.45 | 91 | 1011.5 |
| 20260509183241 | 50 | 182 | 0.0 | 0.0 | 0.05 | 0.44 | 0.44 | 91 | 1011.6 |
| 20260509182943 | 50 | 200 | 0.0 | 3.5 | 0.05 | 0.43 | 0.43 | 91 | 1011.6 |
| 20260509182140 | 50 | 184 | 0.0 | 3.5 | 0.06 | 0.43 | 0.43 | 91 | 1011.6 |
| 20260509181609 | 50 | 192 | 0.9 | 6.1 | 0.06 | 0.43 | 0.43 | 91 | 1011.6 |
| 20260509181309 | 50 | 173 | 0.9 | 6.1 | 0.05 | 0.42 | 0.42 | 91 | 1011.5 |
| 20260509180507 | 50 | 165 | 0.9 | 3.5 | 0.06 | 0.42 | 0.42 | 91 | 1011.7 |
| 20260509180205 | 50 | 171 | 0.9 | 4.3 | 0.05 | 0.41 | 0.42 | 91 | 1011.6 |
| 20260509175404 | 50 | 223 | 0.9 | 1.7 | 0.06 | 0.41 | 0.41 | 91 | 1011.4 |
| 20260509174833 | 50 | 178 | 0.9 | 5.2 | 0.05 | 0.40 | 0.40 | 91 | 1011.4 |
| 20260509174303 | 50 | 130 | 0.9 | 5.2 | 0.05 | 0.40 | 0.40 | 91 | 1011.4 |
| 20260509173733 | 50 | 180 | 0.9 | 2.6 | 0.05 | 0.39 | 0.39 | 91 | 1011.2 |
| 20260509173203 | 50 | 182 | 0.0 | 1.7 | 0.05 | 0.39 | 0.39 | 91 | 1011.2 |
| 20260509172633 | 49 | 184 | 0.9 | 2.6 | 0.04 | 0.38 | 0.38 | 91 | 1011.1 |
| 20260509172102 | 49 | 176 | 0.9 | 2.6 | 0.03 | 0.37 | 0.37 | 91 | 1011.3 |
| 20260509171802 | 50 | 138 | 0.0 | 2.6 | 0.04 | 0.37 | 0.37 | 91 | 1011.3 |
| 20260509171000 | 49 | 169 | 0.0 | 2.6 | 0.04 | 0.37 | 0.37 | 91 | 1011.2 |
| 20260509170429 | 49 | 160 | 0.0 | 0.0 | 0.03 | 0.36 | 0.36 | 91 | 1011.1 |
| 20260509165859 | 49 | 157 | 0.0 | 0.9 | 0.03 | 0.36 | 0.36 | 91 | 1011.2 |
| 20260509165328 | 49 | 157 | 0.9 | 2.6 | 0.03 | 0.35 | 0.35 | 91 | 1011.2 |
| 20260509164758 | 49 | 165 | 0.0 | 2.6 | 0.03 | 0.35 | 0.35 | 91 | 1011.3 |